Phoenix-Mesa Gateway Airport, AZ

9:46 PM MST on November 24, 2017 (GMT -0700)
Phoenix-Mesa Gateway Airport

Weather History for KIWA - January, 2014

Change the Weather History Date:

Tuesday, January 14, 2014

  Actual Average Record
Temperature  
Mean Temperature 52 °F -  
Max Temperature 71 °F 65 °F 82 °F (2000)
Min Temperature 33 °F 40 °F 23 °F (2007)
Degree Days  
Heating Degree Days 13    
Growing Degree Days 2 (Base 50)    
Moisture  
Dew Point 24 °F    
Average Humidity 41    
Maximum Humidity 70    
Minimum Humidity 15    
Precipitation  
Precipitation 0.00 in - - ()
Sea Level Pressure  
Sea Level Pressure 30.28 in    
Wind  
Wind Speed 6 mph (East)    
Max Wind Speed 14 mph    
Max Gust Speed -    
Visibility 13 miles    
Events      
Averages and records for this station are not official NWS values.
T = Trace of Precipitation, MM = Missing Value Source: NWS Daily Summary

Daily Weather History Graph

Daily Weather History Graph

Search for Another Location

Airport or City:

Trip Planner

Search our weather history database for the weather conditions in past years. The results will help you decide how hot, cold, wet, or windy it might be!

Date:

Astronomy

Jan. 14, 2014 Rise Set
Actual Time 7:30 AM MST 5:41 PM MST
Civil Twilight 7:03 AM MST 6:08 PM MST
Nautical Twilight 6:33 AM MST 6:38 PM MST
Astronomical Twilight 6:03 AM MST 7:08 PM MST
Moon 4:48 PM MST (1/14) 6:09 AM MST (1/14)
Length of Visible Light 11h 04m
Length of Day
10h 10m
Waxing Gibbous, 98% of the Moon is Illuminated
Jan 14
Waxing Gibbous
Jan 15
Full
Jan 23
Last Quarter
Jan 30
New
Feb 6
First Quarter

Hourly Weather History & Observations

Time (MST) Temp. Windchill Dew Point Humidity Pressure Visibility Wind Dir Wind Speed Gust Speed Precip Events Conditions
12:15 AM 41.0 °F 35.8 °F 23.0 °F 49% 30.28 in 10.0 mi SE 8.1 mph - N/A   Clear
12:35 AM 42.8 °F 37.5 °F 24.8 °F 49% 30.28 in 10.0 mi ESE 9.2 mph - N/A   Clear
12:55 AM 42.8 °F 38.0 °F 24.8 °F 49% 30.28 in 10.0 mi ESE 8.1 mph - N/A   Clear
1:15 AM 41.0 °F 35.8 °F 24.8 °F 53% 30.27 in 10.0 mi ESE 8.1 mph - N/A   Clear
1:35 AM 41.0 °F 36.4 °F 24.8 °F 53% 30.28 in 10.0 mi East 6.9 mph - N/A   Clear
1:55 AM 41.0 °F 35.2 °F 23.0 °F 49% 30.28 in 10.0 mi East 9.2 mph - N/A   Clear
2:15 AM 41.0 °F 35.2 °F 24.8 °F 53% 30.28 in 10.0 mi ESE 9.2 mph - N/A   Clear
2:35 AM 41.0 °F 35.2 °F 23.0 °F 49% 30.28 in 10.0 mi ESE 9.2 mph - N/A   Clear
2:55 AM 37.4 °F 31.4 °F 23.0 °F 56% 30.28 in 10.0 mi East 8.1 mph - N/A   Clear
3:15 AM 37.4 °F 30.8 °F 23.0 °F 56% 30.28 in 10.0 mi East 9.2 mph - N/A   Clear
3:35 AM 37.4 °F 32.8 °F 23.0 °F 56% 30.29 in 10.0 mi ESE 5.8 mph - N/A   Clear
3:55 AM 37.4 °F 32.8 °F 23.0 °F 56% 30.28 in 10.0 mi ESE 5.8 mph - N/A   Clear
4:15 AM 37.4 °F 31.4 °F 24.8 °F 60% 30.29 in 10.0 mi East 8.1 mph - N/A   Clear
4:35 AM 37.4 °F 31.4 °F 24.8 °F 60% 30.29 in 10.0 mi East 8.1 mph - N/A   Clear
4:47 AM 37.4 °F 32.8 °F 23.0 °F 56% 30.28 in 20.0 mi East 5.8 mph - N/A   Clear
4:55 AM 37.4 °F 31.4 °F 24.8 °F 60% 30.28 in 10.0 mi ESE 8.1 mph - N/A   Clear
5:15 AM 33.8 °F 29.6 °F 24.8 °F 70% 30.28 in 10.0 mi SSE 4.6 mph - N/A   Clear
5:47 AM 37.4 °F 33.8 °F 26.6 °F 65% 30.29 in 20.0 mi East 4.6 mph - N/A   Clear
6:47 AM 37.4 °F 34.9 °F 24.8 °F 60% 30.30 in 20.0 mi NE 3.5 mph - N/A   Clear
7:47 AM 35.6 °F 32.8 °F 24.8 °F 65% 30.32 in 35.0 mi ESE 3.5 mph - N/A   Clear
8:49 AM 41.0 °F 38.0 °F 24.8 °F 53% 30.34 in 30.0 mi SE 4.6 mph - N/A   Clear
9:49 AM 46.4 °F - 24.8 °F 43% 30.36 in 25.0 mi Calm Calm - N/A   Clear
10:48 AM 53.6 °F - 28.4 °F 38% 30.35 in 25.0 mi Calm Calm - N/A   Clear
11:47 AM 57.2 °F - 28.4 °F 33% 30.33 in 35.0 mi WNW 4.6 mph - N/A   Clear
12:48 PM 62.6 °F - 26.6 °F 26% 30.28 in 25.0 mi WSW 5.8 mph - N/A   Clear
1:52 PM 68.0 °F - 19.4 °F 16% 30.26 in 35.0 mi West 5.8 mph - N/A   Clear
2:58 PM 69.8 °F - 21.2 °F 16% 30.24 in 35.0 mi West 6.9 mph - N/A   Clear
3:48 PM 71.6 °F - 21.2 °F 15% 30.25 in 35.0 mi WNW 5.8 mph - N/A   Clear
4:50 PM 68.0 °F - 21.2 °F 17% 30.25 in 35.0 mi WNW 9.2 mph - N/A   Clear
5:50 PM 62.6 °F - 24.8 °F 24% 30.26 in 20.0 mi NW 4.6 mph - N/A   Clear
6:47 PM 62.6 °F - 24.8 °F 24% 30.27 in 20.0 mi NNW 4.6 mph - N/A   Clear
7:50 PM 57.2 °F - 24.8 °F 29% 30.28 in 20.0 mi Calm Calm - N/A   Clear
7:55 PM 55.4 °F - 26.6 °F 33% 30.28 in 10.0 mi East 3.5 mph - N/A   Clear
8:15 PM 53.6 °F - 26.6 °F 35% 30.28 in 10.0 mi NE 3.5 mph - N/A   Clear
8:35 PM 51.8 °F - 28.4 °F 41% 30.28 in 10.0 mi SSE 3.5 mph - N/A   Clear
8:48 PM 53.6 °F - 24.8 °F 33% 30.28 in 20.0 mi Calm Calm - N/A   Clear
8:55 PM 53.6 °F - 26.6 °F 35% 30.28 in 10.0 mi Calm Calm - N/A   Clear
9:15 PM 51.8 °F - 26.6 °F 38% 30.28 in 10.0 mi Calm Calm - N/A   Clear
9:35 PM 51.8 °F - 26.6 °F 38% 30.29 in 10.0 mi SE 3.5 mph - N/A   Clear
9:47 PM 51.8 °F - 26.6 °F 38% 30.29 in 20.0 mi Variable 3.5 mph - N/A   Clear
9:50 PM 53.6 °F - 19.4 °F 26% 30.28 in 20.0 mi ENE 5.8 mph - N/A   Clear
9:55 PM 55.4 °F - 26.6 °F 33% 30.29 in 10.0 mi Calm Calm - N/A   Clear
10:15 PM 55.4 °F - 24.8 °F 31% 30.28 in 10.0 mi North 6.9 mph - N/A   Clear
10:35 PM 53.6 °F - 21.2 °F 28% 30.28 in 10.0 mi ENE 4.6 mph - N/A   Clear
10:55 PM 51.8 °F - 23.0 °F 33% 30.28 in 10.0 mi Calm Calm - N/A   Clear
11:15 PM 51.8 °F - 21.2 °F 30% 30.27 in 10.0 mi NNE 5.8 mph - N/A   Clear
11:35 PM 57.2 °F - 19.4 °F 23% 30.27 in 10.0 mi NNE 13.8 mph - N/A   Clear
11:47 PM 57.2 °F - 17.6 °F 21% 30.27 in 20.0 mi NNE 9.2 mph - N/A   Clear
11:55 PM 57.2 °F - 17.6 °F 21% 30.26 in 10.0 mi NE 9.2 mph - N/A   Clear